{"data":{"norad_id":58494,"epoch":"2026-05-24T22:59:00.909024Z","epoch_age_seconds":82640,"freshness":"FRESH","line1":"1 58494U 23186X   26144.95764941  .00001186  00000+0  52642-4 0  9990","line2":"2 58494  43.0030 352.6439 0001147 258.8476 101.2246 15.27572163137553","mean_motion":15.27572163,"eccentricity":0.0001147,"inclination_deg":43.003,"raan_deg":352.6439,"arg_perigee_deg":258.8476,"mean_anomaly_deg":101.2246,"bstar":5.2642e-5,"rev_number":13755,"period_min":94.26723233631,"perigee_km":482.28558220046,"apogee_km":483.85954367419,"semimajor_km":6861.2095629373,"source":"CELESTRAK","updated_at":"2026-05-25T13:38:18.654499Z"}}